TimeCDT,TemperatureF,Dew PointF,Humidity,Sea Level PressureIn,VisibilityMPH,Wind Direction,Wind SpeedMPH,Gust SpeedMPH,PrecipitationIn,Events,Conditions,WindDirDegrees,DateUTC
12:15 AM,59.0,59.0,100,29.70,1.2,Calm,Calm,-,N/A,,Overcast,0,2012-10-14 05:15:00
12:35 AM,60.8,59.0,94,29.69,1.5,South,4.6,-,N/A,,Overcast,180,2012-10-14 05:35:00
12:55 AM,60.8,59.0,94,29.69,1.5,South,5.8,-,N/A,,Overcast,190,2012-10-14 05:55:00
1:15 AM,60.8,59.0,94,29.68,1.5,South,5.8,-,N/A,,Overcast,170,2012-10-14 06:15:00
1:35 AM,60.8,59.0,94,29.67,1.2,South,5.8,-,N/A,,Overcast,180,2012-10-14 06:35:00
1:55 AM,60.8,59.0,94,29.68,1.0,SSW,4.6,-,N/A,Rain,Rain,200,2012-10-14 06:55:00
2:15 AM,60.8,59.0,94,29.68,1.2,South,5.8,-,N/A,,Light Drizzle,190,2012-10-14 07:15:00
2:35 AM,60.8,59.0,94,29.65,1.2,South,5.8,-,N/A,,Overcast,180,2012-10-14 07:35:00
2:55 AM,60.8,59.0,94,29.65,1.5,SSW,4.6,-,N/A,,Overcast,200,2012-10-14 07:55:00
3:15 AM,60.8,59.0,94,29.63,1.5,Calm,Calm,-,N/A,Rain,Light Rain,0,2012-10-14 08:15:00
3:35 AM,60.8,59.0,94,29.62,1.0,SSW,5.8,-,0.05,Rain,Heavy Rain,210,2012-10-14 08:35:00
3:55 AM,60.8,59.0,94,29.63,1.2,South,8.1,-,0.14,Rain,Rain,180,2012-10-14 08:55:00
4:15 AM,60.8,59.0,94,29.62,1.0,SSW,12.7,16.1,0.08,Rain,Heavy Rain,210,2012-10-14 09:15:00
4:35 AM,60.8,59.0,94,29.61,4.0,SSW,6.9,-,0.19,Rain,Rain,210,2012-10-14 09:35:00
4:55 AM,60.8,59.0,94,29.60,7.0,SW,9.2,-,0.21,Rain,Light Rain,220,2012-10-14 09:55:00
5:15 AM,60.8,59.0,94,29.60,7.0,SW,5.8,-,0.01,Rain,Light Rain,220,2012-10-14 10:15:00
5:35 AM,60.8,59.0,94,29.59,5.0,WSW,3.5,-,0.02,Rain,Rain,240,2012-10-14 10:35:00
5:55 AM,60.8,59.0,94,29.58,4.0,Calm,Calm,-,0.03,Rain,Light Rain,0,2012-10-14 10:55:00
6:15 AM,60.8,59.0,94,29.57,2.5,Calm,Calm,-,0.01,Rain,Light Rain,0,2012-10-14 11:15:00
6:35 AM,60.8,59.0,94,29.56,1.5,Calm,Calm,-,0.02,Rain,Rain,0,2012-10-14 11:35:00
6:55 AM,60.8,59.0,94,29.55,2.0,ENE,9.2,-,0.04,Rain,Light Rain,70,2012-10-14 11:55:00
7:15 AM,55.4,53.6,94,29.54,7.0,NE,6.9,-,N/A,,Drizzle,50,2012-10-14 12:15:00
7:35 AM,51.8,51.8,100,29.54,7.0,NE,12.7,-,0.01,Rain,Light Rain,40,2012-10-14 12:35:00
7:55 AM,51.8,50.0,94,29.53,7.0,NNE,8.1,-,0.02,Rain,Rain,30,2012-10-14 12:55:00
8:15 AM,50.0,50.0,100,29.54,7.0,NE,9.2,-,0.01,Rain,Light Rain,50,2012-10-14 13:15:00
8:55 AM,50.0,48.2,94,29.53,3.0,NE,8.1,-,0.10,Rain,Rain,40,2012-10-14 13:55:00
9:15 AM,50.0,46.4,87,29.52,5.0,NNE,9.2,-,0.05,Rain,Rain,30,2012-10-14 14:15:00
9:35 AM,50.0,46.4,87,29.52,7.0,NNE,5.8,-,0.09,Rain,Light Rain,20,2012-10-14 14:35:00
9:55 AM,48.2,46.4,93,29.52,4.0,North,5.8,-,0.13,Rain,Rain,10,2012-10-14 14:55:00
10:15 AM,48.2,46.4,93,29.53,2.0,NNE,8.1,-,0.04,Rain,Heavy Rain,20,2012-10-14 15:15:00
10:55 AM,48.2,46.4,93,29.53,2.0,North,6.9,-,0.13,Rain,Heavy Rain,360,2012-10-14 15:55:00
11:15 AM,48.2,46.4,93,29.54,5.0,North,10.4,-,0.05,Rain,Heavy Rain,350,2012-10-14 16:15:00
11:35 AM,46.4,44.6,93,29.54,4.0,North,9.2,-,0.10,Rain,Rain,360,2012-10-14 16:35:00
11:55 AM,46.4,44.6,93,29.54,5.0,North,6.9,-,0.15,Rain,Rain,350,2012-10-14 16:55:00
12:15 PM,46.4,44.6,93,29.54,4.0,North,10.4,16.1,0.05,Rain,Rain,350,2012-10-14 17:15:00
12:35 PM,46.4,44.6,93,29.55,4.0,North,8.1,-,0.10,Rain,Heavy Rain,350,2012-10-14 17:35:00
12:55 PM,46.4,44.6,93,29.56,3.0,North,5.8,-,0.14,Rain,Rain,350,2012-10-14 17:55:00
1:15 PM,46.4,44.6,93,29.56,10.0,NNE,9.2,-,0.04,Rain,Rain,20,2012-10-14 18:15:00
1:35 PM,46.4,44.6,93,29.55,10.0,North,6.9,-,0.08,Rain,Rain,10,2012-10-14 18:35:00
1:55 PM,46.4,44.6,93,29.55,10.0,North,12.7,-,0.12,Rain,Light Rain,350,2012-10-14 18:55:00
2:15 PM,46.4,44.6,93,29.56,10.0,North,10.4,18.4,0.04,Rain,Rain,350,2012-10-14 19:15:00
2:35 PM,46.4,44.6,93,29.57,7.0,NNW,10.4,-,0.07,Rain,Heavy Rain,340,2012-10-14 19:35:00
2:55 PM,46.4,44.6,93,29.57,7.0,NNW,12.7,19.6,0.10,Rain,Rain,330,2012-10-14 19:55:00
3:15 PM,44.6,42.8,93,29.58,7.0,NNW,12.7,19.6,0.03,Rain,Light Rain,340,2012-10-14 20:15:00
3:35 PM,44.6,42.8,93,29.59,10.0,NNW,12.7,19.6,0.06,Rain,Rain,330,2012-10-14 20:35:00
3:55 PM,44.6,42.8,93,29.60,10.0,NNW,12.7,23.0,0.09,Rain,Light Rain,340,2012-10-14 20:55:00
4:15 PM,44.6,42.8,93,29.61,10.0,NNW,11.5,18.4,0.03,Rain,Light Rain,340,2012-10-14 21:15:00
4:35 PM,44.6,42.8,93,29.62,10.0,NW,9.2,17.3,0.06,Rain,Light Rain,320,2012-10-14 21:35:00
4:55 PM,44.6,42.8,93,29.64,10.0,NW,11.5,19.6,0.08,Rain,Light Rain,320,2012-10-14 21:55:00
5:15 PM,44.6,41.0,87,29.65,10.0,NW,12.7,19.6,0.02,,Overcast,310,2012-10-14 22:15:00
5:35 PM,44.6,41.0,87,29.67,10.0,NW,11.5,19.6,0.04,,Overcast,310,2012-10-14 22:35:00
5:55 PM,44.6,41.0,87,29.68,10.0,NW,11.5,18.4,0.06,,Overcast,310,2012-10-14 22:55:00
6:15 PM,42.8,41.0,93,29.69,10.0,WNW,10.4,21.9,0.02,,Overcast,300,2012-10-14 23:15:00
6:35 PM,42.8,41.0,93,29.70,10.0,NW,12.7,17.3,0.04,,Overcast,310,2012-10-14 23:35:00
6:55 PM,42.8,41.0,93,29.72,10.0,NW,16.1,-,0.05,,Overcast,310,2012-10-14 23:55:00
7:15 PM,42.8,41.0,93,29.73,10.0,NW,13.8,19.6,0.01,,Overcast,310,2012-10-15 00:15:00
7:35 PM,42.8,41.0,93,29.73,10.0,NW,11.5,-,0.02,,Overcast,310,2012-10-15 00:35:00
7:55 PM,44.6,41.0,87,29.73,10.0,WNW,15.0,21.9,0.02,,Overcast,300,2012-10-15 00:55:00
8:15 PM,42.8,41.0,93,29.74,7.0,NW,10.4,-,N/A,,Overcast,310,2012-10-15 01:15:00
8:35 PM,44.6,41.0,87,29.74,10.0,NW,10.4,16.1,N/A,,Overcast,320,2012-10-15 01:35:00
8:55 PM,44.6,41.0,87,29.75,10.0,NW,9.2,16.1,N/A,,Overcast,310,2012-10-15 01:55:00
9:15 PM,44.6,41.0,87,29.76,10.0,NW,9.2,-,N/A,,Overcast,310,2012-10-15 02:15:00
9:35 PM,44.6,39.2,81,29.77,10.0,WNW,8.1,-,N/A,,Overcast,300,2012-10-15 02:35:00
9:55 PM,44.6,39.2,81,29.77,10.0,NW,8.1,16.1,N/A,,Overcast,320,2012-10-15 02:55:00
10:15 PM,44.6,39.2,81,29.77,10.0,NW,8.1,-,N/A,,Overcast,320,2012-10-15 03:15:00
10:35 PM,44.6,39.2,81,29.78,10.0,NW,11.5,17.3,N/A,,Overcast,310,2012-10-15 03:35:00
10:55 PM,44.6,39.2,81,29.78,10.0,NW,8.1,-,N/A,,Overcast,320,2012-10-15 03:55:00
11:15 PM,44.6,39.2,81,29.79,10.0,NW,10.4,-,N/A,,Overcast,320,2012-10-15 04:15:00
11:35 PM,42.8,37.4,81,29.79,10.0,NW,9.2,-,N/A,,Mostly Cloudy,320,2012-10-15 04:35:00
11:55 PM,42.8,37.4,81,29.79,10.0,NW,6.9,-,N/A,,Scattered Clouds,320,2012-10-15 04:55:00